Miscellaneous Local Product
Issued by NWS Hastings, NE

Home | Current Version | Previous Version | Text Only | Print | Product List | Glossary On
Versions: 1 2 3 4 5 6 7 8 9 10 11 12 13 14 15 16 17 18 19 20 21 22 23 24 25 26 27 28 29 30 31 32 33 34 35 36 37 38 39 40 41 42 43 44 45 46 47 48 49 50
000
AXUS43 KGID 262002
MISGRI

GID CWA HOURLY WEATHER ROUNDUP
NATIONAL WEATHER SERVICE HASTINGS NE
300 PM CDT THU MAR 26 2015

NOTE: "FAIR" INDICATES FEW OR NO CLOUDS BELOW 12,000 FEET WITH NO
SIGNIFICANT WEATHER AND/OR OBSTRUCTIONS TO VISIBILITY.

...SOUTH CENTRAL NEBRASKA...

CITY           SKY/WX    TMP DP  RH WIND       PRES   REMARKS
GRAND ISLAND   CLOUDY    47  27  45 SW8       30.07F
HASTINGS       CLOUDY    50  27  40 S12       30.04F
KEARNEY        PTSUNNY   54  28  37 SW13G23   30.05F
ORD            CLOUDY    45  26  47 S7        30.05F
YORK           CLOUDY    46  28  49 S6        30.09F
AURORA         CLOUDY    49  28  44 S8        30.08F
LEXINGTON      PTSUNNY   58  28  32 W16       30.02F
HOLDREGE       PTSUNNY   55  30  38 SW14G22   30.04F
HEBRON         CLOUDY    49  25  40 CALM      30.09F

...NEBRASKA PANHANDLE...

CITY           SKY/WX    TMP DP  RH WIND       PRES   REMARKS
CHADRON        CLOUDY    54  29  38 NW16G30   30.09F
ALLIANCE       CLOUDY    50  31  48 N25G33    30.10F
SCOTTSBLUFF    CLOUDY    53  32  44 NW25G37   30.14S
SIDNEY         PTSUNNY   54  26  34 NW23G38   30.12F

...WESTERN AND NORTH CENTRAL NEBRASKA...

CITY           SKY/WX    TMP DP  RH WIND       PRES   REMARKS
VALENTINE      PTSUNNY   47  32  56 NE16      30.07R
AINSWORTH      PTSUNNY   51  28  42 N14       30.04S
ONEILL         LGT SNOW  33  33  99 NE9       30.10F VSB 3/4 WCI  26
BROKEN BOW     CLOUDY    56  28  34 W6        30.00F
IMPERIAL         N/A     59  27  29 NW26G38   30.07F
NORTH PLATTE   CLOUDY    57  25  29 NW23G33   30.03F
MCCOOK         CLOUDY    61  24  24 NW22G36   30.03F

...EASTERN NEBRASKA...

CITY           SKY/WX    TMP DP  RH WIND       PRES   REMARKS
NORFOLK        LGT SNOW  35  32  88 N6        30.13R FOG     WCI  30
SO SIOUX CITY  CLOUDY    43  22  43 NW9       30.15F
TEKAMAH        FAIR      48  21  34 N14G29    30.13F
COLUMBUS       CLOUDY    41  27  56 E3        30.13F
ALBION         LGT RAIN  42  28  56 NW7       30.10S
OMAHA EPPLEY   PTSUNNY   49  24  37 N14       30.12F
OFFUTT AFB     SUNNY     48  21  34 NW8       30.11F
MILLARD        SUNNY     47  25  42 W7        30.13F
LINCOLN        MOSUNNY   51  25  36 VRB5      30.11F
NEBRASKA CITY  MOSUNNY   48  22  36 NW7       30.13F
BEATRICE       PTSUNNY   47  26  43 NW3       30.12F
FALLS CITY     MOSUNNY   48  28  46 VRB5      30.12F

...NORTHERN KANSAS...

CITY           SKY/WX    TMP DP  RH WIND       PRES   REMARKS
GOODLAND       PTSUNNY   59  24  26 NW21G31   30.09F
HILL CITY      LGT RAIN  59  33  37 W12       30.05F
NORTON         CLOUDY    61  25  25 W21G28    30.02F
PHILLIPSBURG   PTSUNNY   63  32  31 SW13G22   30.05F
SMITH CENTER   MOSUNNY   55  30  38 S12       30.07F
BELOIT         SUNNY     57  27  30 SE7       30.09F
HAYS           FAIR      59  34  38 SW16G23   30.09F
RUSSELL        MOSUNNY   56  30  37 SW14G21   30.08F
CONCORDIA      MOSUNNY   52  26  36 CALM      30.10F
SALINA         SUNNY     55  29  36 VRB5      30.14F
TOPEKA         SUNNY     52  29  41 VRB7      30.15F



USA.gov is the U.S. government's official web portal to all federal, state and local government web resources and services.